Temperature
5 5 5 5 4 4 4 5 5 5 5 5 5 5 5 5 5 5 5 5 5 5 4 4 4 4 4 4 4 3 3 3 3 3 3 3 3 3 3 3 3 3 3
4 4 4 4 4 4 4 4 4 4 5 5 5 5 5 5 5 4 4 4 4 4 4 4 4 4 3 3 3 3 3 3 2 2 2 3 3 3 3 3 3 3 3
4 4 4 4 3 3 4 4 4 4 4 4 4 4 4 4 4 4 4 4 3 4 3 3 3 3 3 3 3 3 3 3 2 2 2 2 2 2 2 3 2 3 3
3 3 3 3 3 3 3 3 3 3 3 3 3 3 3 3 3 3 3 3 3 3 3 3 3 3 3 2 2 2 2 2 2 2 2 2 2 2 2 2 2 2 2
3 3 3 3 3 3 3 3 2 2 3 3 3 3 2 3 3 2 2 2 2 2 2 2 2 2 2 2 2 2 2 2 2 1 1 1 1 1 1 2 2 2 2
2 2 2 2 2 2 2 2 2 2 2 2 2 2 2 2 2 2 2 2 2 2 2 2 2 2 1 1 1 1 1 1 1 1 1 1 1 1 1 1 1 1 1
1 1 1 1 2 2 2 2 1 1 1 1 1 1 1 1 1 2 1 2 1 1 1 1 1 1 1 1 1 1 1 1 0 0 0 0 0 0 0 0 0 0 0
0 0 1 1 1 1 1 1 1 1 1 1 1 1 1 1 1 1 1 1 1 1 1 1 1 1 1 0 0 1 1 0 0 0 0 0 -0 0 0 -0 -0 -0 0
-0 -0 0 0 0 0 0 0 0 0 0 0 0 0 0 0 0 1 1 1 1 0 0 0 0 0 -0 -0 0 0 0 0 0 -0 -0 -0 -0 -0 -0 -0 -0 -0 -0
-1 -1 -0 -0 -0 -0 -0 -0 -0 -1 -1 -1 -1 -0 -0 -0 -0 -0 0 0 0 -0 -0 -0 -0 -1 -1 -1 -0 -0 -0 -0 -0 -0 -0 -0 -0 -0 -0 -0 -1 -1 -1
-1 -1 -1 -1 -1 -1 -1 -1 -1 -1 -1 -1 -1 -1 -1 -1 -1 -1 -0 -0 -1 -1 -1 -1 -1 -1 -1 -1 -1 -1 -1 -1 -1 -1 -1 -1 -1 -1 -1 -1 -1 -1 -1
-2 -2 -2 -2 -1 -1 -1 -1 -1 -1 -1 -2 -1 -1 -1 -1 -1 -1 -1 -1 -1 -1 -1 -1 -1 -1 -1 -1 -1 -1 -1 -1 -1 -1 -1 -1 -1 -1 -1 -1 -1 -1 -1
-2 -2 -2 -2 -2 -2 -2 -2 -2 -2 -2 -2 -2 -2 -2 -2 -2 -2 -1 -1 -1 -1 -1 -2 -2 -2 -1 -1 -2 -2 -2 -2 -2 -2 -2 -2 -2 -1 -1 -1 -1 -1 -1
-2 -3 -3 -3 -3 -3 -2 -2 -2 -2 -2 -2 -2 -2 -2 -2 -2 -2 -2 -2 -2 -2 -2 -2 -2 -2 -2 -2 -2 -2 -2 -2 -2 -2 -2 -2 -2 -2 -2 -2 -1 -1 -1
-3 -3 -3 -3 -3 -3 -3 -3 -3 -3 -3 -3 -3 -3 -3 -3 -3 -2 -2 -2 -2 -2 -3 -2 -2 -2 -2 -2 -3 -2 -3 -3 -3 -3 -3 -3 -2 -2 -2 -2 -2 -2 -2
-3 -3 -4 -4 -4 -4 -4 -4 -4 -3 -3 -3 -3 -3 -3 -3 -3 -3 -3 -3 -3 -3 -3 -3 -3 -3 -3 -3 -3 -3 -3 -3 -3 -3 -3 -3 -3 -3 -3 -2 -2 -2 -2
-4 -4 -4 -4 -4 -4 -4 -4 -4 -4 -4 -4 -4 -4 -4 -3 -3 -3 -3 -3 -3 -3 -3 -3 -3 -3 -4 -4 -4 -4 -4 -4 -4 -3 -3 -3 -3 -3 -3 -3 -3 -3 -3
-4 -4 -4 -4 -4 -5 -5 -5 -4 -4 -4 -4 -4 -4 -4 -4 -4 -4 -3 -3 -3 -4 -4 -4 -4 -4 -4 -4 -4 -4 -4 -4 -4 -3 -3 -4 -4 -3 -3 -3 -3 -3 -3
-4 -4 -4 -5 -5 -5 -5 -5 -5 -5 -5 -4 -4 -4 -4 -4 -4 -4 -4 -4 -4 -4 -4 -4 -4 -4 -4 -4 -4 -4 -4 -4 -4 -4 -4 -4 -4 -4 -4 -4 -4 -3 -3
-4 -4 -5 -5 -5 -5 -5 -5 -5 -5 -5 -5 -5 -5 -5 -4 -4 -4 -4 -4 -4 -4 -5 -5 -5 -5 -5 -4 -4 -4 -4 -4 -4 -4 -4 -4 -4 -4 -4 -4 -4 -4 -3
-5 -5 -5 -5 -5 -5 -5 -6 -5 -5 -5 -5 -5 -5 -5 -5 -5 -5 -5 -5 -5 -5 -5 -5 -5 -5 -5 -5 -5 -5 -5 -5 -5 -4 -4 -4 -4 -4 -4 -4 -4 -4 -3
-5 -5 -5 -6 -6 -6 -6 -6 -6 -6 -6 -6 -6 -5 -5 -5 -5 -5 -5 -5 -5 -5 -5 -5 -5 -5 -5 -5 -5 -5 -5 -5 -5 -5 -5 -4 -4 -4 -4 -4 -4 -3 -3
-6 -6 -6 -6 -6 -6 -6 -6 -6 -6 -6 -6 -6 -6 -6 -6 -6 -6 -6 -6 -5 -5 -5 -5 -5 -5 -5 -5 -5 -5 -5 -5 -5 -5 -5 -5 -4 -4 -4 -4 -4 -4 -4
-6 -6 -6 -6 -6 -6 -6 -6 -6 -6 -6 -6 -6 -6 -6 -6 -6 -6 -6 -6 -6 -6 -6 -5 -5 -5 -5 -5 -5 -5 -5 -5 -5 -5 -5 -5 -4 -4 -4 -4 -4 -4 -4
-6 -6 -6 -6 -7 -7 -7 -7 -7 -7 -6 -6 -6 -6 -6 -6 -6 -6 -6 -6 -6 -6 -6 -6 -6 -6 -5 -5 -5 -5 -5 -5 -5 -5 -5 -5 -4 -4 -4 -4 -4 -4 -4
-7 -7 -7 -7 -7 -7 -7 -7 -7 -7 -7 -7 -6 -6 -6 -6 -7 -7 -6 -6 -6 -6 -6 -6 -6 -6 -6 -6 -6 -5 -5 -5 -5 -5 -5 -5 -4 -4 -4 -4 -4 -4 -4
Wind_Speed
2 2 2 3 3 3 2 3 3 3 3 3 3 3 3 3 3 3 3 4 4 3 3 3 3 2 1 1 1 2 3 3 5 5 3 4 4 5 6 6 7 7 7
1 2 2 2 2 2 2 2 2 3 3 3 3 2 2 2 3 3 3 4 4 3 3 3 2 2 2 2 2 3 3 3 4 6 5 4 4 4 5 5 6 6 7
0 1 2 1 1 2 2 1 1 2 2 2 2 2 2 2 3 3 3 3 3 3 3 3 2 2 2 2 3 3 3 3 3 4 5 4 4 4 4 5 5 5 6
1 1 2 1 1 1 1 1 1 1 2 2 1 1 2 2 2 2 2 2 2 2 2 2 2 2 3 3 3 3 3 3 3 3 3 4 4 4 3 4 5 5 5
2 2 1 1 1 1 2 2 1 1 1 1 1 1 1 1 2 2 2 2 2 1 1 2 2 2 3 3 3 3 3 3 3 3 3 3 4 3 4 3 4 5 5
2 2 2 2 2 2 2 1 1 1 1 1 1 0 0 1 2 2 2 2 2 2 2 1 2 2 2 3 4 4 4 3 3 3 3 4 5 4 3 4 4 4 4
2 2 2 2 2 2 2 2 1 1 1 1 0 0 1 1 1 2 2 2 2 2 2 1 2 2 3 2 3 4 3 4 3 3 4 4 4 4 3 4 3 4 4
2 2 2 2 2 1 2 1 1 1 0 0 0 0 0 1 2 2 1 1 1 2 2 2 2 2 3 2 2 2 2 3 3 2 2 3 3 2 2 3 4 4 3
2 2 2 2 2 2 1 1 1 1 0 0 0 0 0 1 2 1 0 1 1 1 1 1 2 2 3 2 1 2 2 3 4 4 5 4 4 4 4 2 2 2 3
1 1 1 1 1 1 1 1 1 1 1 1 1 0 0 1 2 2 0 1 1 1 1 1 2 2 3 3 2 2 3 3 3 4 4 5 3 3 4 2 1 2 2
1 1 1 1 1 1 0 0 1 1 1 1 1 1 0 1 1 2 1 0 1 1 1 1 1 1 3 4 3 2 2 2 2 2 2 3 3 2 2 3 2 1 2
1 1 1 1 1 1 1 1 1 1 1 1 1 1 1 1 1 2 1 1 1 0 0 0 1 2 3 3 2 2 1 2 1 1 1 2 3 3 3 4 4 3 2
2 1 1 1 1 1 1 1 1 1 1 1 1 1 1 1 1 2 2 2 2 1 0 0 1 2 2 2 2 1 1 1 1 1 1 2 2 3 3 3 4 4 3
1 1 1 1 2 2 1 1 1 1 1 1 1 1 1 1 1 1 1 1 2 2 1 1 1 2 2 2 2 2 1 1 1 1 1 2 2 2 2 2 3 3 3
1 1 1 1 1 1 1 1 1 1 2 2 2 1 1 2 2 1 1 0 0 1 1 1 1 1 2 2 2 2 2 2 1 1 1 2 2 3 3 3 2 3 2
1 1 1 1 1 1 1 2 2 2 2 2 2 2 1 2 1 1 0 1 0 1 1 1 1 1 1 1 1 2 2 2 1 1 1 2 2 2 3 3 3 2 3
1 1 1 1 1 1 1 1 2 2 2 2 2 2 2 2 1 1 1 1 2 3 2 1 1 1 1 1 1 1 1 2 1 1 1 1 2 2 3 3 3 3 3
1 1 1 1 1 1 1 2 2 2 2 2 2 2 2 2 2 2 2 3 2 2 1 1 1 1 1 1 1 1 1 2 2 2 2 2 2 2 2 3 3 3 3
1 1 1 1 1 1 1 1 1 2 1 1 1 2 2 2 2 3 4 2 2 1 1 1 1 0 1 1 1 1 1 1 2 2 2 2 2 2 2 3 3 4 3
1 2 2 1 1 1 1 1 1 1 1 1 0 1 1 1 1 1 2 2 1 1 1 1 1 1 1 1 1 1 1 1 2 2 2 2 2 2 2 3 2 3 2
1 2 2 2 1 1 1 1 1 1 1 1 1 0 0 1 1 1 1 1 1 1 0 0 1 1 1 1 1 1 2 2 2 2 2 2 2 2 2 2 3 2 2
1 1 1 1 1 1 1 1 1 1 1 1 1 0 1 1 1 1 1 0 1 1 1 0 0 1 1 1 1 1 1 2 2 2 2 2 2 2 2 2 3 2 2
1 1 1 1 1 2 2 1 1 1 1 1 1 1 1 1 1 1 0 0 0 1 1 1 0 1 1 2 2 1 1 2 2 2 2 2 2 2 2 2 3 2 2
1 1 1 1 1 1 1 1 1 1 1 1 1 1 1 1 1 1 0 0 0 1 1 1 1 1 2 2 2 2 2 2 3 2 2 2 2 2 1 2 2 2 2
1 1 1 1 1 1 1 1 1 1 1 1 1 1 1 1 1 1 0 0 0 0 1 1 1 1 2 2 2 3 3 4 3 3 2 1 1 1 1 1 1 1 1
1 1 1 1 1 1 1 1 1 1 1 1 1 1 1 1 1 1 1 1 1 1 1 1 1 2 2 2 3 3 4 3 3 3 2 1 1 1 1 1 1 1 1
Wind_Direction
223 223 211 207 191 196 194 185 182 174 172 176 183 190 194 197 201 197 198 191 199 206 209 210 221 231 244 251 255 254 256 251 265 286 296 307 305 303 314 312 308 303 300
230 206 194 188 175 189 189 187 175 173 174 180 181 183 199 202 198 201 209 205 201 204 212 217 225 229 254 252 262 265 259 254 259 284 301 308 301 300 315 314 319 315 314
197 163 155 171 171 183 185 191 171 160 156 160 159 178 204 204 200 207 209 214 206 203 206 216 225 221 249 263 268 272 275 274 267 277 293 305 306 316 320 317 315 322 322
44 113 125 148 171 157 145 125 122 149 152 156 173 198 215 212 203 213 218 211 197 194 200 208 221 234 245 259 274 272 282 282 277 280 293 308 312 315 318 320 322 328 324
38 50 74 91 100 90 88 80 76 94 117 144 154 179 204 204 213 211 218 224 191 174 192 213 215 231 246 263 277 287 289 288 286 279 291 307 310 323 320 316 316 322 321
47 41 49 72 83 79 84 83 70 68 73 75 88 124 252 253 234 230 226 220 196 181 202 226 233 231 260 288 292 296 294 279 275 277 281 288 296 304 313 316 318 327 319
47 43 45 60 72 71 66 67 44 55 66 45 30 13 295 269 258 236 236 225 201 198 195 218 265 261 273 257 292 308 313 315 291 270 271 277 285 294 300 308 309 307 298
58 40 34 44 57 62 62 61 17 39 79 338 274 258 288 302 313 276 221 197 182 185 197 219 240 258 255 264 279 299 303 307 306 308 279 277 286 292 281 278 287 306 308
57 38 25 37 36 50 43 14 350 330 312 321 264 203 260 309 323 314 137 180 181 199 217 217 230 258 268 282 270 275 295 310 336 333 328 318 321 331 341 338 337 333 323
32 17 23 30 38 34 359 326 322 319 311 327 342 336 270 268 320 327 252 183 181 207 231 227 236 253 280 292 255 251 275 296 315 328 333 335 336 340 351 347 293 305 317
8 35 28 24 26 3 26 348 350 338 344 349 356 347 334 333 329 334 312 193 197 208 230 271 277 294 301 306 300 267 269 296 303 321 329 338 343 346 352 350 332 289 284
54 55 27 2 354 7 35 355 2 343 335 320 358 355 338 325 337 317 309 323 342 228 232 297 344 339 330 318 315 307 316 335 314 335 349 341 336 336 337 341 337 331 302
62 50 16 3 0 12 11 327 335 329 313 310 314 306 316 329 322 323 322 341 354 3 351 355 356 347 340 329 332 339 359 351 348 353 336 325 325 325 339 343 344 351 348
49 12 8 7 353 350 333 317 319 304 297 296 291 293 305 319 324 325 339 347 3 3 5 26 30 35 28 8 8 15 18 14 27 351 332 326 334 343 342 338 338 346 352
21 353 351 344 333 335 329 306 291 270 266 274 271 263 271 279 289 298 281 257 275 292 17 34 36 36 30 21 18 21 20 19 20 1 354 350 347 345 338 340 347 348 349
1 346 331 321 329 335 332 336 332 306 328 326 329 315 290 305 331 346 309 297 236 108 79 63 50 50 41 28 18 5 4 359 353 349 348 346 337 334 336 343 350 350 344
301 298 311 322 320 317 316 311 320 334 341 340 351 357 6 11 35 35 40 67 98 105 81 83 76 52 32 22 14 2 347 334 333 336 336 332 329 334 339 339 344 349 346
318 303 308 288 290 283 283 289 292 296 313 335 347 6 21 38 50 56 76 91 86 74 68 86 78 47 23 7 356 347 338 335 339 342 341 339 334 337 339 338 336 341 341
333 311 287 282 288 292 290 293 299 301 295 304 341 351 9 29 67 73 81 79 96 80 63 64 64 41 7 1 355 339 329 325 333 333 335 336 334 340 338 331 333 341 340
332 330 325 299 291 292 292 293 298 297 295 289 307 331 337 33 78 75 70 73 81 79 62 52 37 26 8 353 348 340 331 329 331 325 329 331 328 330 334 332 335 336 331
329 322 334 332 311 302 305 302 293 290 294 295 302 311 107 127 129 103 87 87 86 86 62 38 18 4 348 343 342 331 331 326 322 325 329 330 331 329 329 332 332 330 334
336 342 356 350 336 330 322 316 308 303 316 337 354 8 67 97 102 87 77 75 72 78 78 61 8 342 318 295 287 292 296 308 317 320 324 325 326 329 332 337 339 342 347
349 349 348 349 346 337 346 356 353 356 15 19 14 25 44 71 85 89 80 70 78 62 35 37 10 328 334 328 310 282 278 294 305 309 314 318 323 330 337 342 339 345 350
345 343 344 347 356 9 13 11 15 15 11 20 35 47 50 51 55 41 25 29 42 17 15 6 322 305 333 345 341 331 320 317 319 315 310 312 317 326 338 344 338 339 349
353 353 353 358 7 7 9 10 11 17 16 15 23 26 29 40 41 28 6 35 8 355 356 359 355 348 346 338 333 338 336 336 343 350 348 335 328 338 358 352 343 355 12
354 358 3 7 9 4 358 352 360 12 14 8 17 18 20 22 17 6 8 22 6 2 2 4 356 351 348 343 338 338 342 349 357 6 16 21 359 353 17 7 6 27 43
Height
1445 1446 1448 1448 1449 1450 1451 1452 1454 1455 1457 1458 1459 1461 1461 1463 1464 1464 1464 1465 1466 1467 1467 1468 1468 1468 1468 1468 1467 1467 1466 1465 1463 1460 1460 1458 1456 1454 1451 1449 1447 1446 1444
1442 1443 1443 1444 1445 1447 1447 1448 1450 1451 1453 1454 1455 1456 1457 1458 1459 1460 1460 1461 1462 1462 1463 1464 1464 1464 1464 1463 1463 1462 1461 1461 1459 1457 1455 1453 1452 1450 1448 1445 1443 1442 1440
1439 1439 1439 1441 1442 1443 1444 1445 1446 1448 1449 1450 1451 1452 1453 1454 1455 1456 1457 1457 1458 1459 1460 1460 1460 1460 1460 1459 1459 1458 1457 1457 1455 1454 1451 1450 1448 1446 1444 1442 1440 1438 1436
1436 1436 1437 1438 1439 1440 1441 1442 1443 1445 1445 1447 1447 1449 1450 1450 1451 1452 1453 1453 1454 1455 1456 1456 1456 1456 1456 1456 1455 1454 1454 1453 1451 1450 1448 1446 1444 1443 1441 1438 1436 1434 1433
1434 1434 1434 1436 1437 1437 1438 1439 1441 1442 1442 1444 1444 1445 1446 1446 1447 1448 1449 1450 1450 1450 1451 1452 1452 1452 1453 1452 1452 1451 1450 1449 1448 1446 1444 1443 1441 1439 1437 1435 1433 1432 1430
1433 1433 1433 1434 1435 1435 1436 1437 1438 1439 1439 1440 1441 1442 1442 1443 1443 1444 1445 1446 1446 1447 1447 1448 1449 1449 1448 1448 1448 1447 1447 1446 1444 1443 1441 1440 1438 1437 1435 1433 1431 1429 1426
1432 1432 1432 1432 1432 1433 1434 1435 1436 1436 1436 1437 1438 1439 1439 1439 1440 1441 1441 1442 1443 1443 1443 1444 1444 1445 1445 1444 1444 1444 1443 1442 1442 1440 1438 1437 1435 1434 1432 1430 1429 1428 1425
1430 1430 1431 1431 1431 1432 1432 1433 1434 1434 1434 1435 1436 1436 1436 1436 1437 1437 1437 1439 1439 1440 1440 1441 1441 1441 1441 1441 1440 1440 1439 1438 1437 1436 1435 1434 1432 1431 1430 1429 1427 1426 1424
1429 1430 1430 1430 1430 1430 1430 1431 1432 1432 1433 1433 1433 1433 1433 1433 1434 1434 1434 1435 1436 1436 1437 1437 1437 1437 1437 1437 1437 1436 1436 1435 1434 1433 1432 1431 1430 1428 1428 1426 1425 1423 1421
1428 1428 1428 1429 1429 1429 1429 1429 1430 1430 1430 1430 1430 1431 1431 1431 1431 1431 1432 1432 1432 1433 1433 1434 1434 1434 1434 1434 1433 1433 1432 1431 1430 1429 1428 1428 1427 1426 1425 1424 1423 1421 1419
1427 1426 1427 1427 1427 1427 1427 1428 1428 1428 1428 1428 1428 1428 1428 1429 1429 1429 1429 1429 1430 1430 1430 1430 1431 1431 1431 1431 1430 1430 1429 1429 1427 1426 1425 1424 1424 1423 1422 1422 1421 1420 1418
1425 1425 1425 1425 1425 1425 1425 1426 1426 1426 1426 1426 1426 1426 1426 1426 1426 1426 1427 1427 1427 1427 1427 1428 1428 1428 1428 1428 1428 1427 1427 1426 1425 1424 1423 1422 1422 1421 1420 1420 1419 1418 1417
1423 1423 1423 1423 1424 1424 1424 1424 1424 1425 1424 1424 1424 1424 1424 1424 1424 1425 1425 1425 1425 1425 1425 1426 1426 1426 1425 1425 1425 1425 1424 1423 1423 1422 1421 1421 1421 1420 1419 1418 1417 1416 1415
1421 1421 1421 1421 1422 1422 1423 1423 1423 1423 1423 1423 1423 1422 1422 1422 1422 1422 1423 1423 1423 1424 1424 1424 1424 1424 1424 1423 1423 1422 1422 1421 1421 1421 1420 1419 1419 1418 1417 1417 1415 1414 1413
1420 1420 1420 1421 1421 1421 1421 1422 1422 1422 1422 1422 1421 1421 1421 1420 1420 1421 1421 1421 1421 1422 1422 1422 1422 1422 1422 1421 1421 1421 1420 1420 1420 1419 1419 1418 1417 1417 1416 1416 1414 1413 1412
1419 1419 1419 1419 1419 1419 1419 1420 1420 1420 1420 1420 1420 1420 1419 1419 1419 1419 1419 1419 1420 1420 1420 1420 1420 1420 1420 1420 1420 1419 1419 1419 1419 1419 1418 1417 1417 1416 1415 1415 1414 1413 1411
1418 1418 1418 1418 1418 1418 1418 1418 1417 1418 1418 1418 1418 1418 1418 1417 1417 1417 1417 1418 1418 1418 1419 1418 1419 1419 1419 1419 1419 1419 1419 1419 1418 1418 1417 1417 1416 1415 1415 1414 1413 1412 1410
1417 1417 1417 1417 1416 1416 1416 1416 1416 1416 1415 1415 1416 1416 1416 1416 1416 1416 1416 1416 1416 1417 1417 1417 1417 1418 1418 1418 1418 1418 1418 1418 1418 1417 1417 1416 1416 1415 1414 1413 1412 1411 1409
1416 1415 1415 1415 1415 1415 1415 1415 1415 1415 1414 1414 1414 1414 1414 1414 1415 1415 1415 1415 1415 1415 1416 1416 1417 1417 1417 1418 1418 1417 1417 1417 1417 1416 1416 1415 1415 1414 1413 1413 1411 1410 1408
1415 1414 1414 1414 1413 1413 1413 1413 1413 1413 1413 1413 1413 1413 1413 1413 1413 1413 1413 1413 1414 1414 1415 1415 1416 1416 1417 1417 1417 1417 1416 1416 1416 1415 1415 1414 1414 1413 1413 1412 1410 1409 1407
1413 1413 1413 1413 1412 1412 1412 1412 1412 1412 1411 1411 1411 1412 1412 1412 1412 1412 1412 1412 1412 1413 1414 1414 1414 1415 1416 1416 1416 1416 1415 1415 1415 1414 1414 1414 1413 1412 1411 1410 1409 1408 1407
1413 1412 1411 1411 1411 1411 1411 1411 1411 1410 1410 1410 1410 1410 1411 1411 1411 1411 1411 1411 1411 1412 1412 1413 1413 1414 1415 1415 1414 1414 1414 1414 1414 1413 1413 1412 1412 1411 1410 1410 1409 1408 1407
1412 1412 1411 1411 1410 1410 1410 1410 1410 1409 1409 1409 1409 1409 1410 1410 1410 1410 1410 1410 1410 1410 1411 1412 1412 1413 1413 1413 1413 1413 1413 1413 1413 1412 1412 1411 1411 1410 1410 1409 1409 1408 1407
1412 1411 1411 1410 1410 1410 1409 1409 1409 1408 1408 1408 1408 1408 1408 1409 1409 1409 1409 1409 1410 1409 1410 1410 1411 1412 1412 1412 1412 1412 1412 1412 1412 1411 1411 1411 1410 1410 1409 1409 1409 1408 1408
1412 1411 1410 1410 1410 1409 1409 1409 1408 1408 1408 1407 1407 1407 1407 1408 1408 1408 1409 1409 1409 1409 1409 1409 1410 1410 1410 1410 1410 1410 1410 1410 1410 1410 1410 1410 1409 1409 1409 1408 1408 1408 1408
1411 1411 1410 1410 1409 1409 1408 1408 1408 1407 1407 1407 1407 1407 1407 1407 1407 1408 1408 1408 1408 1408 1408 1408 1408 1409 1409 1409 1409 1409 1409 1409 1409 1409 1409 1409 1409 1408 1408 1408 1408 1408 1408